Weather History for Bishop, CA

Change the Weather History Date:

Tuesday, April 16, 2013

  Actual Average Record
Temperature  
Mean Temperature 42 °F 54 °F  
Max Temperature 52 °F 73 °F 89 °F (1987)
Min Temperature 31 °F 36 °F 21 °F (1967)
Degree Days  
Heating Degree Days 23 11  
Month to date heating degree days 139 198  
Since 1 July heating degree days 3712 3921  
Cooling Degree Days 0 0  
Month to date cooling degree days 1 0  
Year to date cooling degree days 1 0  
Moisture  
Dew Point 17 °F    
Average Humidity 40    
Maximum Humidity 59    
Minimum Humidity 20    
Precipitation  
Precipitation 0.00 in 0.01 in 0.35 in (1970)
Month to date precipitation T 0.17  
Year to date precipitation T 2.60  
Snow  
Snow 0.00 in 0.00 in T in (1995)
Month to date snowfall 0.0 0.0  
Since 1 July snowfall 2.8 6.8  
Snow Depth 0.00 in    
Sea Level Pressure  
Sea Level Pressure 29.86 in    
Wind  
Wind Speed 17 mph (North)    
Max Wind Speed 31 mph    
Max Gust Speed 39 mph    
Visibility 10 miles    
Events      
T = Trace of Precipitation, MM = Missing Value Source: NWS Daily Summary

Daily Weather History Graph

Daily Weather History Graph

Search for Another Location

Airport:

Trip Planner

Search our weather history database for the weather conditions in past years. The results will help you decide how hot, cold, wet, or windy it might be!

Date:

Astronomy

Apr. 16, 2013 Rise Set
Actual Time 6:16 AM PDT 7:29 PM PDT
Civil Twilight 5:49 AM PDT 7:56 PM PDT
Nautical Twilight 5:17 AM PDT 8:29 PM PDT
Astronomical Twilight 4:44 AM PDT 9:03 PM PDT
Moon 10:43 AM PDT (4/16) 12:27 AM PDT (4/16)
Length of Visible Light 14h 07m
Length of Day
13h 12m
Waxing Crescent, 34% of the Moon is Illuminated
Apr 16
Waxing Crescent
Apr 18
First Quarter
Apr 25
Full
May 2
Last Quarter
May 9
New

Hourly Weather History & Observations

Time (PDT) Temp. Windchill Dew Point Humidity Pressure Visibility Wind Dir Wind Speed Gust Speed Precip Events Conditions
12:56 AM 37.9 °F 27.3 °F 23.0 °F 55% 29.62 in 10.0 mi North 21.9 mph 35.7 mph N/A   Clear
1:56 AM 37.0 °F 26.4 °F 24.1 °F 59% 29.65 in 10.0 mi North 20.7 mph 34.5 mph N/A   Mostly Cloudy
2:56 AM 37.9 °F 28.2 °F 23.0 °F 55% 29.66 in 10.0 mi North 18.4 mph 26.5 mph N/A   Clear
3:56 AM 37.9 °F 27.3 °F 23.0 °F 55% 29.69 in 10.0 mi North 21.9 mph 32.2 mph N/A   Partly Cloudy
4:56 AM 39.0 °F 29.9 °F 21.9 °F 50% 29.72 in 10.0 mi North 17.3 mph 24.2 mph N/A   Mostly Cloudy
5:56 AM 37.0 °F 25.6 °F 25.0 °F 62% 29.76 in 10.0 mi North 24.2 mph 36.8 mph N/A   Overcast
6:56 AM 37.0 °F 28.5 °F 25.0 °F 62% 29.81 in 10.0 mi North 13.8 mph - N/A   Overcast
7:56 AM 39.9 °F 32.5 °F 21.9 °F 49% 29.85 in 10.0 mi NNE 12.7 mph - N/A   Overcast
8:56 AM 43.0 °F 34.8 °F 21.0 °F 42% 29.86 in 10.0 mi North 18.4 mph 29.9 mph N/A   Overcast
9:56 AM 46.0 °F 37.8 °F 16.0 °F 30% 29.86 in 10.0 mi North 23.0 mph 34.5 mph N/A   Mostly Cloudy
10:56 AM 48.0 °F - 10.9 °F 22% 29.86 in 10.0 mi North 20.7 mph 31.1 mph N/A   Clear
11:56 AM 48.9 °F - 16.0 °F 27% 29.86 in 10.0 mi North 24.2 mph 31.1 mph N/A   Partly Cloudy
12:56 PM 50.0 °F - 10.9 °F 21% 29.85 in 10.0 mi North 20.7 mph 31.1 mph N/A   Mostly Cloudy
1:56 PM 50.0 °F - 12.9 °F 23% 29.86 in 10.0 mi North 26.5 mph 36.8 mph N/A   Scattered Clouds
2:56 PM 46.9 °F - 12.9 °F 25% 29.88 in 10.0 mi North 21.9 mph 31.1 mph N/A   Overcast
3:56 PM 48.0 °F - 12.9 °F 24% 29.88 in 10.0 mi NNW 20.7 mph 32.2 mph N/A   Mostly Cloudy
4:56 PM 46.9 °F - 10.9 °F 23% 29.88 in 10.0 mi NNW 19.6 mph 28.8 mph N/A   Overcast
5:56 PM 45.0 °F 37.1 °F 10.0 °F 24% 29.91 in 10.0 mi NNW 19.6 mph 24.2 mph N/A   Overcast
6:56 PM 41.0 °F 30.2 °F 17.1 °F 38% 29.96 in 10.0 mi NNW 27.6 mph 39.1 mph N/A   Overcast
7:56 PM 42.1 °F 34.9 °F 10.0 °F 27% 29.97 in 10.0 mi NNW 13.8 mph 25.3 mph N/A   Overcast
8:56 PM 39.9 °F 31.8 °F 14.0 °F 35% 30.01 in 10.0 mi NNW 15.0 mph - N/A   Partly Cloudy
9:56 PM 35.1 °F 29.3 °F 15.1 °F 44% 30.04 in 10.0 mi North 6.9 mph - N/A   Partly Cloudy
10:56 PM 34.0 °F - 14.0 °F 44% 30.05 in 10.0 mi Calm Calm - N/A   Clear
11:56 PM 32.0 °F 26.4 °F 14.0 °F 48% 30.07 in 10.0 mi North 5.8 mph - N/A   Clear